Regional Weather Roundup
Issued by NWS Newport/Morehead, NC

Current Version | Previous Version | Graphics & Text | Print | Product List | Glossary Off
Versions: 1 2 3 4 5 6 7 8 9 10 11 12 13 14 15 16 17 18 19 20 21 22 23 24 25 26 27 28 29 30 31 32 33 34 35 36 37 38 39 40 41 42 43 44 45 46 47 48 49 50

000
ASUS42 KMHX 282113
RWRMHX
WEATHER ROUNDUP FOR EASTERN NORTH CAROLINA
NATIONAL WEATHER SERVICE NEWPORT/MOREHEAD CITY NC
500 PM EDT WED JUN 28 2017

NOTE: "FAIR" INDICATES FEW OR NO CLOUDS BELOW 12,000 FEET
WITH NO SIGNIFICANT WEATHER AND/OR OBSTRUCTIONS TO VISIBILITY

NCZ015>017-031-032-045>047-102-103-282200-
NORTH COAST

CITY           SKY/WX    TMP DP  RH WIND       PRES   REMARKS
EDENTON        SUNNY     81  62  51 CALM      30.18F
ELIZABETH CITY SUNNY     79  60  52 E9        30.18F
KITTY HAWK     CLEAR     75  58  56 NE5       30.19S
MANTEO         SUNNY     75  60  59 E12       30.20S

$$

NCZ045>047-081-094-103-104-282200-
CENTRAL COAST

CITY           SKY/WX    TMP DP  RH WIND       PRES   REMARKS
FRISCO         NOT AVBL

$$

NCZ095-097-098-100-101-282200-
SOUTHERN COAST

CITY           SKY/WX    TMP DP  RH WIND       PRES   REMARKS
BEAUFORT       SUNNY     83  60  45 E7        30.16F
CEDAR ISLAND   NOT AVBL
JACKSONVILLE   SUNNY     84  52  33 VRB3      30.15S
PINEY ISLAND   CLEAR    N/A N/A N/A E9        30.17S
WILMINGTON     SUNNY     84  55  36 E9        30.15F


$$

NCZ011>013-027>030-043-044-078>080-089-090>093-098-282200-
COASTAL PLAIN

CITY           SKY/WX    TMP DP  RH WIND       PRES   REMARKS
AHOSKIE          N/A     79  51  36 NE3       30.17F
CLINTON        SUNNY     85  54  34 NE5       30.16F
ELIZABETHTOWN  NOT AVBL
GOLDSBORO      SUNNY     84  50  30 N3        30.15F
GREENVILLE     SUNNY     84  54  34 CALM      30.17F
HAVELOCK       MOSUNNY   83  57  41 E10       30.17F
KENANSVILLE    SUNNY     82  52  34 E3        30.17S
KINSTON        SUNNY     84  50  30 CALM      30.17F
NEW BERN       SUNNY     83  54  36 NE5       30.17F
RICHLANDS      SUNNY     83  53  35 N6        30.17S
ROCKY MOUNT    SUNNY     82  51  34 NW3       30.17F
WASHINGTON     SUNNY    N/A N/A N/A CALM      30.17S
WHITEVILLE     SUNNY     85  51  31 NE5       30.14F

$$

AMZ130-135-150-152-154-156-158-170-250-252-270-ANZ085-086-088-633-658-670-282200-
MARINE OBSERVATIONS

STATION/POSITION TIME  TEMP    WIND        PRES    WAVE   SWELL
                       AIR SEA DIR/SP/G            HT/PER HT/PER
                 (UTC) (F)     (DEG/KT/KT) (MB)    (FT/S) (FT/S)
CHESAPEAKE LIGHT NOT AVBL
64 E VA BEACH    2050   71 74   10/  8/ 10 1023.5    2/ 5   2/ 5
DUCK             2048   72 73   60/ 11/ 12 1022.1
2 E DUCK         NOT AVBL
OREGON INLET     2048           20/  9/ 12   N/A
13E OREGON INLT  2048      75                N/A     3/ 5   2/ 5
HATTERAS CG      2048   79 78   30/  5/  9 1021.7
DIAMOND BUOY     2050   78 83   40/  8/ 10 1021.5    3/ 6   2/ 6
CAPE LOOKOUT     2000   79      60/ 12/ 14 1021.3
BEAUFORT LAB     2048   82 79   50/  6/ 11 1020.8
30 SE NEW RVR IN NOT AVBL
30 SE NEW RVR IN 2043      81                N/A     2/ 8
27 SE WRIGHTSVLE 2008   80 81   80/  6/ 10 1021.4
5 SE WRIGHTSVLE  2008   79 80  110/  8/ 12 1021.4
225 S CAPE HAT   2050   80 81   60/ 14/ 16 1019.4    3/ 6   2/ 8
41 SE CHARLESTON 2050   80 80   50/ 16/ 19 1020.0    5/ 6

$$




USA.gov is the U.S. government's official web portal to all federal, state and local government web resources and services.